SCP
0 0 0 0 0 0 0 0 0 0 0 0 0 0 0 0 0 0 0 0 0 0 0 0 0 0 0 0 0 0 0 0 0 -0 -0 0 0 0 0 0 0 0 0 0 0 0 0 0 0
0 0 0 0 0 0 0 0 0 0 0 0 0 0 0 0 0 0 0 0 0 0 -0 0 0 0 0 0 0 0 0 0 0 0 0 0 0 0 0 0 0 0 0 0 0 0 0 0 0
0 0 0 0 0 0 0 0 0 0 0 0 0 0 0 0 0 0 0 0 0 0 0 -0 1 0 0 0 1 0 0 0 0 0 0 0 0 0 0 0 0 0 0 0 0 0 0 0 0
0 0 0 0 0 0 0 0 0 0 0 0 0 0 0 0 0 0 0 0 0 0 0 0 0 0 1 1 1 1 1 0 0 0 0 0 0 0 0 0 0 0 0 0 0 0 0 0 0
0 0 0 0 0 0 0 0 0 0 0 0 0 0 0 0 0 0 0 0 0 0 0 1 0 0 1 1 1 1 1 1 0 0 0 0 0 0 0 0 0 0 0 0 0 0 0 0 0
0 0 0 0 0 0 0 0 0 0 0 0 0 0 0 0 0 0 0 0 0 0 0 0 0 0 0 0 1 1 1 1 1 0 0 0 0 0 0 0 0 0 0 0 0 0 0 0 0
0 0 0 0 0 0 0 0 0 0 0 0 0 0 0 0 0 0 0 0 0 0 0 0 0 0 0 0 1 1 1 1 1 1 0 0 0 0 0 0 0 0 0 0 0 0 0 0 0
0 0 0 0 0 0 0 0 0 0 0 0 0 0 0 0 0 0 0 0 0 0 0 0 0 0 0 0 0 0 1 1 1 1 0 0 0 0 0 0 0 0 0 0 0 0 0 0 0
0 0 0 0 0 0 0 0 0 0 0 0 0 0 0 0 0 0 0 0 0 0 0 0 0 0 0 0 0 0 0 1 1 1 0 0 0 0 0 0 0 0 0 0 0 0 0 0 0
0 0 0 0 0 0 0 0 0 0 0 0 0 0 0 0 0 0 0 0 0 0 0 0 0 0 0 0 0 0 0 1 1 1 1 1 0 0 0 0 0 0 0 0 0 0 0 0 0
0 0 0 0 0 0 0 0 0 0 0 0 0 0 0 0 0 0 0 0 0 0 0 0 0 0 0 0 0 1 1 1 1 1 1 1 1 1 0 0 0 0 0 0 0 0 0 0 0
0 0 0 0 0 0 0 0 0 0 0 0 0 0 0 0 0 0 0 0 0 0 0 0 0 0 0 0 0 0 0 1 1 1 1 1 2 2 0 0 0 0 0 0 0 0 0 0 0
0 0 0 0 -0 -0 0 -0 0 0 0 0 0 0 0 0 0 0 0 0 0 0 0 0 0 0 0 0 0 0 0 0 0 1 1 2 2 2 1 0 0 0 0 0 0 0 0 0 0
0 0 -0 0 -0 0 0 0 0 0 0 0 0 0 0 0 0 0 0 0 0 0 0 0 0 0 0 0 0 0 0 0 0 0 1 1 2 2 1 1 0 0 0 0 0 0 0 0 0
0 0 0 -0 0 -0 0 -0 0 0 0 0 0 0 0 0 0 0 0 0 0 0 0 0 0 0 0 0 0 0 0 0 0 0 0 1 1 1 1 1 1 0 0 0 0 0 0 0 0
0 0 0 0 -0 0 0 0 0 0 0 0 0 0 0 0 0 0 0 0 0 0 0 0 0 0 0 0 0 0 0 0 0 0 0 0 1 1 1 0 1 0 0 0 0 0 0 0 0
0 0 0 0 -0 0 0 0 0 0 0 0 0 0 0 0 0 0 0 0 0 0 0 0 0 0 0 0 0 0 0 0 0 0 -0 0 0 1 1 0 1 0 0 0 0 0 0 0 0
0 0 0 0 0 0 0 0 0 0 0 0 0 0 0 0 0 0 0 0 0 0 0 0 0 0 0 0 0 0 0 0 0 0 0 0 0 0 1 1 0 0 0 0 0 0 0 0 0
0 0 0 0 0 0 0 -0 0 0 0 0 0 0 0 0 0 0 0 0 0 0 0 0 0 0 0 0 0 0 0 0 0 0 0 0 0 0 0 0 0 0 0 0 0 0 0 0 0
0 0 0 0 0 0 0 0 0 0 0 0 0 0 0 -0 -0 -0 0 0 0 0 0 0 0 0 0 0 0 0 0 0 0 0 0 0 0 0 0 0 0 0 0 0 0 0 0 0 0
0 0 0 0 0 0 0 -0 0 0 0 0 0 0 0 -0 -0 0 0 0 0 0 0 0 0 0 0 0 0 0 0 0 0 0 0 0 0 0 0 0 0 0 0 0 0 0 0 0 0
0 0 0 0 0 0 0 0 0 0 0 0 0 0 -0 0 0 0 0 0 0 0 0 0 0 0 0 0 0 0 0 -0 0 0 0 0 0 0 0 0 0 0 0 0 0 0 0 0 0
0 0 0 0 0 0 0 0 0 0 0 0 0 -0 0 0 0 0 0 0 0 0 0 0 0 0 0 0 0 0 0 0 -0 0 0 0 0 0 0 0 0 0 0 0 0 0 0 0 0
0 0 0 0 0 0 0 0 0 0 0 0 0 0 0 0 0 0 0 0 0 0 0 0 0 0 0 0 0 0 0 0 -0 0 0 0 0 0 0 0 -0 0 -0 -0 -0 0 0 0 0
0 -0 -0 0 0 0 0 0 0 0 0 0 0 0 0 0 0 0 0 0 0 0 0 0 0 0 0 0 0 0 0 -0 -0 0 0 0 0 0 0 0 0 0 0 0 0 0 0 0 0
0 -0 0 0 0 0 0 0 0 0 0 0 0 0 0 0 0 -0 -0 0 0 0 0 0 0 0 0 0 0 0 0 0 0 0 0 0 0 0 0 0 0 0 0 0 0 0 0 0 0
0 0 0 0 0 0 0 0 0 0 0 0 0 0 0 0 0 -0 -0 -0 -0 0 0 0 0 0 0 0 0 0 0 0 0 0 0 0 0 0 0 0 0 0 0 0 0 0 0 0 0
0 0 0 0 0 0 0 0 0 0 0 0 0 0 0 -0 0 -0 -0 -0 -0 0 0 0 0 0 0 0 0 0 0 0 0 0 0 0 0 0 0 0 0 0 0 0 0 0 0 0 0
0 0 0 0 0 0 0 0 0 0 0 0 0 0 0 0 -0 -0 -0 -0 -0 0 0 0 0 0 0 0 0 0 0 0 0 0 0 0 0 0 0 0 0 0 0 0 0 0 0 0 0
0 0 0 0 0 0 0 0 0 0 0 0 0 0 0 0 0 -0 -0 -0 -0 0 0 0 0 0 0 0 0 0 0 0 0 0 0 0 0 0 0 0 0 0 0 0 0 0 0 0 0
Wind_Speed_500mb
4 14 24 17 9 8 13 11 7 10 6 3 0 9 10 19 11 5 12 20 18 17 28 44 46 50 48 46 45 45 43 42 42 39 37 36 36 37 41 38 31 26 19 19 26 26 26 27 31
14 27 24 7 9 13 13 8 14 10 4 20 16 17 17 8 3 8 11 28 26 17 25 42 45 48 51 50 49 47 45 42 40 41 40 37 35 40 43 42 35 32 25 25 31 33 30 29 28
20 29 12 8 9 22 13 1 5 11 15 9 8 4 8 2 6 9 28 30 25 13 22 37 47 47 47 49 50 49 47 43 41 41 42 38 37 40 43 43 39 34 32 32 35 34 37 36 33
15 7 3 12 26 20 10 3 8 8 2 11 12 13 1 10 5 20 30 29 18 9 17 29 47 50 47 49 50 50 50 47 44 43 41 41 42 40 44 43 38 34 28 39 38 33 35 47 39
18 4 8 12 27 12 8 8 12 11 7 6 15 5 12 11 5 21 28 28 23 12 16 25 42 52 53 51 53 52 51 50 48 45 43 42 40 43 42 40 38 37 34 30 38 39 37 46 43
5 3 10 23 29 10 2 12 13 13 11 17 10 22 12 11 15 23 32 27 28 24 21 27 36 52 58 55 55 56 54 52 50 49 45 42 41 42 42 42 42 39 35 28 32 36 35 41 45
4 6 13 19 17 10 1 15 7 15 15 10 17 14 11 14 22 40 56 45 31 29 25 30 38 45 62 61 60 60 59 57 54 52 49 46 44 44 41 42 45 43 34 30 33 36 27 47 41
3 4 6 8 9 7 7 16 11 15 13 20 7 11 10 14 53 73 67 59 44 31 29 30 36 35 51 63 65 65 62 62 59 55 52 49 48 47 47 49 49 45 39 37 35 36 35 38 41
4 7 9 4 6 2 6 14 14 14 30 34 26 35 43 55 54 59 62 63 55 42 34 34 30 40 53 54 66 68 68 64 63 58 57 55 53 53 52 53 52 50 49 47 43 43 40 42 40
3 5 2 0 4 12 21 19 24 16 28 42 41 36 33 35 46 46 45 48 57 54 46 36 36 37 39 55 65 54 71 69 67 66 66 65 62 54 55 56 54 52 51 46 47 45 50 46 43
4 4 2 5 9 12 16 32 20 18 29 24 35 45 44 43 40 38 40 39 43 49 53 46 41 38 41 46 49 70 52 72 73 74 73 73 71 63 60 58 57 56 53 45 50 50 51 54 41
7 5 7 6 6 12 25 30 27 41 53 40 40 42 43 40 38 41 42 46 45 49 49 50 40 41 37 47 49 43 51 64 74 80 81 80 79 76 64 55 59 61 60 52 53 49 52 47 50
3 4 11 21 33 44 37 47 32 45 44 36 29 27 29 41 46 47 49 50 53 53 54 52 39 41 40 38 47 53 65 47 71 82 86 88 86 83 75 63 59 62 54 52 53 47 50 52 55
13 24 35 22 23 24 21 31 12 11 12 19 27 24 38 50 49 52 52 55 51 54 56 54 50 39 44 44 42 53 63 59 49 71 91 96 96 91 87 74 64 63 59 53 51 51 48 52 54
10 14 15 19 15 12 19 26 16 12 26 32 26 45 55 42 43 48 46 47 51 52 54 54 56 50 46 50 53 52 59 69 63 42 78 98 102 100 97 87 71 72 67 59 54 49 47 50 50
8 9 15 5 14 5 15 23 9 31 41 56 51 41 37 42 41 40 44 45 48 49 50 54 54 55 51 51 54 59 65 64 70 66 55 81 107 106 102 95 89 81 79 75 67 57 53 53 52
6 14 27 20 10 18 6 42 27 57 48 46 34 24 31 40 45 48 49 48 48 50 54 61 61 61 54 50 52 56 61 64 67 65 48 67 82 101 103 100 96 88 87 85 78 66 58 54 53
25 16 23 27 25 22 35 44 42 50 33 22 10 23 39 49 55 59 59 53 51 52 53 57 65 64 60 54 53 54 57 67 60 61 64 41 71 88 110 108 105 101 95 91 84 76 67 54 50
17 24 32 37 17 35 25 46 36 23 17 12 24 40 53 61 66 62 58 56 53 50 52 54 60 63 59 59 51 54 59 59 70 70 47 56 43 85 106 104 110 108 106 99 92 82 75 68 56
19 24 23 25 20 27 23 39 5 8 8 9 26 46 64 73 72 68 63 57 52 52 49 50 54 58 57 59 55 44 39 50 67 61 67 48 32 50 92 100 98 111 111 103 91 84 76 74 74
21 12 29 39 50 13 22 12 14 9 8 17 40 59 73 71 68 70 67 61 56 50 50 48 50 52 54 56 52 47 47 53 64 59 70 45 35 39 52 73 51 81 115 103 95 82 77 75 74
11 20 39 35 16 9 13 12 8 6 13 19 57 77 78 69 67 62 65 62 53 55 49 49 50 49 51 50 51 46 42 41 49 57 49 60 37 15 47 90 72 36 49 73 56 40 72 74 76
16 41 29 8 3 11 4 8 4 5 13 38 58 73 67 66 64 65 61 59 56 44 46 47 42 45 47 49 44 39 42 40 41 65 59 57 48 23 32 43 43 55 53 56 53 42 47 75 75
30 17 1 3 3 6 9 11 10 8 18 50 64 68 64 63 63 61 57 53 52 39 37 35 30 36 41 45 33 33 31 35 44 52 72 84 48 35 38 45 67 55 67 77 74 66 67 67 75
19 14 11 8 5 9 7 16 13 4 26 42 58 72 69 62 60 60 61 57 53 43 34 25 19 25 31 36 32 29 29 33 36 44 44 71 73 45 40 45 51 68 68 70 79 74 81 68 69
10 8 5 13 14 21 13 9 10 6 42 59 58 59 62 61 59 56 56 52 49 41 32 24 14 14 29 36 37 35 40 31 33 37 46 46 68 41 47 47 49 45 57 70 69 73 55 59 60
3 6 2 9 3 8 7 8 10 15 33 52 61 62 61 62 60 58 54 48 46 40 30 26 15 12 21 35 43 37 39 40 34 39 48 29 38 39 41 34 47 57 56 53 44 56 59 54 59
4 4 3 3 12 15 8 9 17 40 44 44 50 59 63 63 58 55 51 48 41 37 30 24 20 19 20 24 25 37 38 36 40 48 56 38 33 39 55 36 36 43 49 42 41 44 52 52 52
4 2 2 4 6 8 14 9 5 29 36 36 44 58 58 60 55 51 51 45 39 32 25 20 20 20 21 20 24 29 34 37 40 39 49 43 38 49 40 34 38 46 45 45 37 35 44 39 30
2 6 5 3 2 10 9 12 5 24 33 32 46 53 55 55 53 49 46 44 41 37 28 21 18 17 19 18 19 29 28 33 42 44 38 46 56 51 43 45 41 39 36 33 29 31 29 29 23
Wind_Direction_500mb
152 150 149 150 211 243 235 243 266 186 208 118 311 204 214 291 286 335 309 322 286 296 214 217 211 206 202 202 203 203 199 197 195 193 195 198 197 187 183 185 189 203 205 177 167 157 160 163 157
141 143 147 176 243 231 245 207 218 247 335 310 275 256 238 203 38 289 332 306 333 324 215 220 217 215 208 205 204 204 205 202 198 191 198 201 194 187 190 193 197 208 205 191 192 186 174 171 170
146 154 180 207 226 235 258 95 345 305 322 306 282 288 311 56 19 12 347 337 337 343 215 219 226 224 218 214 207 206 206 207 206 199 202 201 196 192 199 202 206 214 215 208 204 204 199 190 188
143 159 115 233 227 249 257 66 2 331 211 16 332 260 297 62 98 4 348 339 329 263 216 231 230 227 229 220 217 211 209 211 212 212 208 200 200 198 205 207 209 210 197 182 193 208 205 193 193
160 164 216 240 250 259 255 308 309 283 288 314 334 278 293 234 9 345 340 336 327 283 230 231 234 229 231 228 221 218 216 214 215 216 214 209 200 201 207 209 202 190 189 188 196 197 206 193 196
163 206 223 238 237 244 276 336 305 284 292 305 294 310 266 227 264 305 327 323 329 303 253 228 237 233 234 234 228 223 222 220 217 217 218 217 209 207 205 200 194 191 197 216 214 205 209 205 195
257 223 257 265 252 259 18 349 309 320 295 316 323 288 267 237 268 303 314 316 318 319 284 238 229 232 233 234 234 230 226 224 222 220 218 217 211 207 199 198 198 202 212 207 202 198 203 189 194
106 257 238 230 249 270 2 339 318 321 305 311 297 262 270 281 303 300 304 304 303 302 297 273 238 230 234 231 235 235 233 228 226 223 221 218 210 208 205 205 208 215 207 205 205 205 203 186 186
86 231 247 259 232 334 330 332 301 295 284 291 255 274 280 298 308 310 305 296 293 285 281 285 270 247 238 232 234 235 234 235 230 225 222 215 211 209 210 212 215 215 215 216 209 206 205 199 201
347 251 285 221 257 278 294 297 306 297 287 275 287 284 297 305 308 312 314 308 295 287 273 278 279 277 256 245 238 239 234 231 233 227 222 219 215 210 208 215 219 215 213 216 211 206 204 205 206
352 277 40 249 251 268 289 288 263 270 276 281 287 302 305 308 312 310 309 307 306 300 286 278 277 276 276 261 245 238 239 233 231 230 225 221 218 215 214 214 213 211 210 215 212 208 209 209 205
271 275 260 280 250 284 283 285 260 252 255 282 292 293 300 310 314 313 309 304 302 298 296 290 280 272 270 267 262 238 238 241 234 232 229 225 220 218 214 209 210 210 212 210 209 212 212 210 210
255 327 297 280 285 280 267 252 259 272 280 283 289 303 314 316 310 306 302 298 294 292 291 287 286 269 263 263 264 257 236 240 240 239 233 228 225 222 218 213 208 210 209 210 210 213 211 212 214
334 301 282 292 264 258 258 277 274 285 322 305 294 298 319 316 314 310 306 300 294 290 286 280 276 268 262 261 260 264 255 237 245 244 239 235 231 226 221 217 210 212 209 209 212 216 212 214 216
303 295 261 233 300 294 319 273 217 286 322 316 308 305 314 320 322 316 312 302 294 288 282 277 271 269 261 262 259 261 261 249 244 258 250 244 235 228 227 220 214 217 214 212 213 213 213 215 220
278 250 334 358 311 309 342 288 279 308 315 309 308 314 324 326 324 318 311 308 298 287 280 271 266 268 266 260 262 257 257 260 247 257 244 245 224 227 229 228 224 222 219 217 215 212 211 215 219
23 313 323 327 285 321 276 294 294 306 308 308 316 330 342 337 335 328 318 309 300 290 281 271 267 262 263 252 255 253 250 257 255 250 266 262 228 230 230 231 228 222 222 219 217 215 215 214 219
320 318 311 312 318 321 293 285 304 313 311 316 2 349 341 332 327 325 321 313 302 291 279 274 267 263 256 256 253 254 245 249 261 254 246 274 236 240 238 232 231 225 222 222 218 219 216 216 219
291 291 295 305 322 321 301 300 319 345 90 49 1 345 337 330 324 319 315 313 309 296 284 273 268 261 255 255 249 256 253 242 252 260 244 249 256 244 232 229 234 229 221 221 221 220 222 223 221
296 297 309 309 312 323 309 304 41 122 120 29 349 342 335 327 324 320 316 313 309 302 293 277 268 261 249 247 247 249 258 241 241 249 250 261 262 250 233 234 236 223 223 219 218 219 222 224 227
312 263 312 309 320 280 304 272 212 203 250 315 340 337 331 326 323 318 315 313 310 305 299 283 268 258 245 239 245 248 250 252 244 251 253 243 290 250 224 227 235 212 230 218 217 217 222 229 234
302 329 316 310 320 318 15 302 268 237 299 338 340 335 327 328 324 319 315 313 312 310 306 290 270 254 240 233 233 242 241 249 242 244 234 242 283 266 233 237 252 264 221 220 219 241 235 231 232
275 316 321 311 217 300 153 272 295 338 352 339 336 334 328 326 325 322 319 314 313 312 318 300 269 250 239 230 231 241 244 248 241 238 235 225 260 230 235 210 211 223 223 214 210 243 241 234 235
310 314 135 129 263 264 121 359 288 9 346 337 336 330 328 327 327 325 323 319 320 323 321 311 283 248 240 219 230 229 245 246 249 243 239 227 264 250 229 225 218 214 217 223 224 222 227 220 226
354 335 344 329 299 302 141 312 304 155 349 345 331 328 329 330 330 330 328 327 329 331 331 328 307 253 225 216 222 227 238 238 236 238 238 235 251 271 219 238 230 222 218 219 226 230 230 229 240
19 15 20 308 319 309 308 245 337 308 338 337 332 329 330 334 334 333 330 329 330 333 337 339 335 264 215 218 221 228 235 245 240 241 236 229 237 290 241 224 227 226 218 224 226 228 236 243 247
57 1 333 263 202 269 280 270 253 331 334 341 342 340 336 336 336 335 334 334 335 338 340 335 315 302 250 235 233 235 236 241 244 243 233 256 221 265 262 232 223 211 221 214 214 243 239 248 240
354 63 258 183 308 314 307 284 305 336 342 341 341 337 335 337 338 338 337 337 338 342 338 322 306 291 267 254 243 234 238 243 239 240 239 237 232 252 252 235 223 221 225 225 229 236 234 243 244
159 204 177 270 260 300 313 356 267 343 337 331 333 334 336 337 339 341 341 342 342 341 336 317 302 291 272 255 237 241 240 232 239 242 233 227 246 248 244 234 217 215 213 216 216 220 222 227 215
278 243 222 258 270 245 272 282 238 3 336 326 335 336 340 342 343 347 347 346 346 348 344 333 318 303 291 281 259 256 256 245 239 240 228 208 237 242 233 208 198 205 197 174 179 186 180 191 203
Wind_Speed_850mb
4 14 24 17 9 8 13 11 7 10 6 3 0 9 10 19 11 5 12 20 18 17 28 44 46 50 48 46 45 45 43 42 42 39 37 36 36 37 41 38 31 26 19 19 26 26 26 27 31
14 27 24 7 9 13 13 8 14 10 4 20 16 17 17 8 3 8 11 28 26 17 25 42 45 48 51 50 49 47 45 42 40 41 40 37 35 40 43 42 35 32 25 25 31 33 30 29 28
20 29 12 8 9 22 13 1 5 11 15 9 8 4 8 2 6 9 28 30 25 13 22 37 47 47 47 49 50 49 47 43 41 41 42 38 37 40 43 43 39 34 32 32 35 34 37 36 33
15 7 3 12 26 20 10 3 8 8 2 11 12 13 1 10 5 20 30 29 18 9 17 29 47 50 47 49 50 50 50 47 44 43 41 41 42 40 44 43 38 34 28 39 38 33 35 47 39
18 4 8 12 27 12 8 8 12 11 7 6 15 5 12 11 5 21 28 28 23 12 16 25 42 52 53 51 53 52 51 50 48 45 43 42 40 43 42 40 38 37 34 30 38 39 37 46 43
5 3 10 23 29 10 2 12 13 13 11 17 10 22 12 11 15 23 32 27 28 24 21 27 36 52 58 55 55 56 54 52 50 49 45 42 41 42 42 42 42 39 35 28 32 36 35 41 45
4 6 13 19 17 10 1 15 7 15 15 10 17 14 11 14 22 40 56 45 31 29 25 30 38 45 62 61 60 60 59 57 54 52 49 46 44 44 41 42 45 43 34 30 33 36 27 47 41
3 4 6 8 9 7 7 16 11 15 13 20 7 11 10 14 53 73 67 59 44 31 29 30 36 35 51 63 65 65 62 62 59 55 52 49 48 47 47 49 49 45 39 37 35 36 35 38 41
4 7 9 4 6 2 6 14 14 14 30 34 26 35 43 55 54 59 62 63 55 42 34 34 30 40 53 54 66 68 68 64 63 58 57 55 53 53 52 53 52 50 49 47 43 43 40 42 40
3 5 2 0 4 12 21 19 24 16 28 42 41 36 33 35 46 46 45 48 57 54 46 36 36 37 39 55 65 54 71 69 67 66 66 65 62 54 55 56 54 52 51 46 47 45 50 46 43
4 4 2 5 9 12 16 32 20 18 29 24 35 45 44 43 40 38 40 39 43 49 53 46 41 38 41 46 49 70 52 72 73 74 73 73 71 63 60 58 57 56 53 45 50 50 51 54 41
7 5 7 6 6 12 25 30 27 41 53 40 40 42 43 40 38 41 42 46 45 49 49 50 40 41 37 47 49 43 51 64 74 80 81 80 79 76 64 55 59 61 60 52 53 49 52 47 50
3 4 11 21 33 44 37 47 32 45 44 36 29 27 29 41 46 47 49 50 53 53 54 52 39 41 40 38 47 53 65 47 71 82 86 88 86 83 75 63 59 62 54 52 53 47 50 52 55
13 24 35 22 23 24 21 31 12 11 12 19 27 24 38 50 49 52 52 55 51 54 56 54 50 39 44 44 42 53 63 59 49 71 91 96 96 91 87 74 64 63 59 53 51 51 48 52 54
10 14 15 19 15 12 19 26 16 12 26 32 26 45 55 42 43 48 46 47 51 52 54 54 56 50 46 50 53 52 59 69 63 42 78 98 102 100 97 87 71 72 67 59 54 49 47 50 50
8 9 15 5 14 5 15 23 9 31 41 56 51 41 37 42 41 40 44 45 48 49 50 54 54 55 51 51 54 59 65 64 70 66 55 81 107 106 102 95 89 81 79 75 67 57 53 53 52
6 14 27 20 10 18 6 42 27 57 48 46 34 24 31 40 45 48 49 48 48 50 54 61 61 61 54 50 52 56 61 64 67 65 48 67 82 101 103 100 96 88 87 85 78 66 58 54 53
25 16 23 27 25 22 35 44 42 50 33 22 10 23 39 49 55 59 59 53 51 52 53 57 65 64 60 54 53 54 57 67 60 61 64 41 71 88 110 108 105 101 95 91 84 76 67 54 50
17 24 32 37 17 35 25 46 36 23 17 12 24 40 53 61 66 62 58 56 53 50 52 54 60 63 59 59 51 54 59 59 70 70 47 56 43 85 106 104 110 108 106 99 92 82 75 68 56
19 24 23 25 20 27 23 39 5 8 8 9 26 46 64 73 72 68 63 57 52 52 49 50 54 58 57 59 55 44 39 50 67 61 67 48 32 50 92 100 98 111 111 103 91 84 76 74 74
21 12 29 39 50 13 22 12 14 9 8 17 40 59 73 71 68 70 67 61 56 50 50 48 50 52 54 56 52 47 47 53 64 59 70 45 35 39 52 73 51 81 115 103 95 82 77 75 74
11 20 39 35 16 9 13 12 8 6 13 19 57 77 78 69 67 62 65 62 53 55 49 49 50 49 51 50 51 46 42 41 49 57 49 60 37 15 47 90 72 36 49 73 56 40 72 74 76
16 41 29 8 3 11 4 8 4 5 13 38 58 73 67 66 64 65 61 59 56 44 46 47 42 45 47 49 44 39 42 40 41 65 59 57 48 23 32 43 43 55 53 56 53 42 47 75 75
30 17 1 3 3 6 9 11 10 8 18 50 64 68 64 63 63 61 57 53 52 39 37 35 30 36 41 45 33 33 31 35 44 52 72 84 48 35 38 45 67 55 67 77 74 66 67 67 75
19 14 11 8 5 9 7 16 13 4 26 42 58 72 69 62 60 60 61 57 53 43 34 25 19 25 31 36 32 29 29 33 36 44 44 71 73 45 40 45 51 68 68 70 79 74 81 68 69
10 8 5 13 14 21 13 9 10 6 42 59 58 59 62 61 59 56 56 52 49 41 32 24 14 14 29 36 37 35 40 31 33 37 46 46 68 41 47 47 49 45 57 70 69 73 55 59 60
3 6 2 9 3 8 7 8 10 15 33 52 61 62 61 62 60 58 54 48 46 40 30 26 15 12 21 35 43 37 39 40 34 39 48 29 38 39 41 34 47 57 56 53 44 56 59 54 59
4 4 3 3 12 15 8 9 17 40 44 44 50 59 63 63 58 55 51 48 41 37 30 24 20 19 20 24 25 37 38 36 40 48 56 38 33 39 55 36 36 43 49 42 41 44 52 52 52
4 2 2 4 6 8 14 9 5 29 36 36 44 58 58 60 55 51 51 45 39 32 25 20 20 20 21 20 24 29 34 37 40 39 49 43 38 49 40 34 38 46 45 45 37 35 44 39 30
2 6 5 3 2 10 9 12 5 24 33 32 46 53 55 55 53 49 46 44 41 37 28 21 18 17 19 18 19 29 28 33 42 44 38 46 56 51 43 45 41 39 36 33 29 31 29 29 23
Wind_Direction_850mb
152 150 149 150 211 243 235 243 266 186 208 118 311 204 214 291 286 335 309 322 286 296 214 217 211 206 202 202 203 203 199 197 195 193 195 198 197 187 183 185 189 203 205 177 167 157 160 163 157
141 143 147 176 243 231 245 207 218 247 335 310 275 256 238 203 38 289 332 306 333 324 215 220 217 215 208 205 204 204 205 202 198 191 198 201 194 187 190 193 197 208 205 191 192 186 174 171 170
146 154 180 207 226 235 258 95 345 305 322 306 282 288 311 56 19 12 347 337 337 343 215 219 226 224 218 214 207 206 206 207 206 199 202 201 196 192 199 202 206 214 215 208 204 204 199 190 188
143 159 115 233 227 249 257 66 2 331 211 16 332 260 297 62 98 4 348 339 329 263 216 231 230 227 229 220 217 211 209 211 212 212 208 200 200 198 205 207 209 210 197 182 193 208 205 193 193
160 164 216 240 250 259 255 308 309 283 288 314 334 278 293 234 9 345 340 336 327 283 230 231 234 229 231 228 221 218 216 214 215 216 214 209 200 201 207 209 202 190 189 188 196 197 206 193 196
163 206 223 238 237 244 276 336 305 284 292 305 294 310 266 227 264 305 327 323 329 303 253 228 237 233 234 234 228 223 222 220 217 217 218 217 209 207 205 200 194 191 197 216 214 205 209 205 195
257 223 257 265 252 259 18 349 309 320 295 316 323 288 267 237 268 303 314 316 318 319 284 238 229 232 233 234 234 230 226 224 222 220 218 217 211 207 199 198 198 202 212 207 202 198 203 189 194
106 257 238 230 249 270 2 339 318 321 305 311 297 262 270 281 303 300 304 304 303 302 297 273 238 230 234 231 235 235 233 228 226 223 221 218 210 208 205 205 208 215 207 205 205 205 203 186 186
86 231 247 259 232 334 330 332 301 295 284 291 255 274 280 298 308 310 305 296 293 285 281 285 270 247 238 232 234 235 234 235 230 225 222 215 211 209 210 212 215 215 215 216 209 206 205 199 201
347 251 285 221 257 278 294 297 306 297 287 275 287 284 297 305 308 312 314 308 295 287 273 278 279 277 256 245 238 239 234 231 233 227 222 219 215 210 208 215 219 215 213 216 211 206 204 205 206
352 277 40 249 251 268 289 288 263 270 276 281 287 302 305 308 312 310 309 307 306 300 286 278 277 276 276 261 245 238 239 233 231 230 225 221 218 215 214 214 213 211 210 215 212 208 209 209 205
271 275 260 280 250 284 283 285 260 252 255 282 292 293 300 310 314 313 309 304 302 298 296 290 280 272 270 267 262 238 238 241 234 232 229 225 220 218 214 209 210 210 212 210 209 212 212 210 210
255 327 297 280 285 280 267 252 259 272 280 283 289 303 314 316 310 306 302 298 294 292 291 287 286 269 263 263 264 257 236 240 240 239 233 228 225 222 218 213 208 210 209 210 210 213 211 212 214
334 301 282 292 264 258 258 277 274 285 322 305 294 298 319 316 314 310 306 300 294 290 286 280 276 268 262 261 260 264 255 237 245 244 239 235 231 226 221 217 210 212 209 209 212 216 212 214 216
303 295 261 233 300 294 319 273 217 286 322 316 308 305 314 320 322 316 312 302 294 288 282 277 271 269 261 262 259 261 261 249 244 258 250 244 235 228 227 220 214 217 214 212 213 213 213 215 220
278 250 334 358 311 309 342 288 279 308 315 309 308 314 324 326 324 318 311 308 298 287 280 271 266 268 266 260 262 257 257 260 247 257 244 245 224 227 229 228 224 222 219 217 215 212 211 215 219
23 313 323 327 285 321 276 294 294 306 308 308 316 330 342 337 335 328 318 309 300 290 281 271 267 262 263 252 255 253 250 257 255 250 266 262 228 230 230 231 228 222 222 219 217 215 215 214 219
320 318 311 312 318 321 293 285 304 313 311 316 2 349 341 332 327 325 321 313 302 291 279 274 267 263 256 256 253 254 245 249 261 254 246 274 236 240 238 232 231 225 222 222 218 219 216 216 219
291 291 295 305 322 321 301 300 319 345 90 49 1 345 337 330 324 319 315 313 309 296 284 273 268 261 255 255 249 256 253 242 252 260 244 249 256 244 232 229 234 229 221 221 221 220 222 223 221
296 297 309 309 312 323 309 304 41 122 120 29 349 342 335 327 324 320 316 313 309 302 293 277 268 261 249 247 247 249 258 241 241 249 250 261 262 250 233 234 236 223 223 219 218 219 222 224 227
312 263 312 309 320 280 304 272 212 203 250 315 340 337 331 326 323 318 315 313 310 305 299 283 268 258 245 239 245 248 250 252 244 251 253 243 290 250 224 227 235 212 230 218 217 217 222 229 234
302 329 316 310 320 318 15 302 268 237 299 338 340 335 327 328 324 319 315 313 312 310 306 290 270 254 240 233 233 242 241 249 242 244 234 242 283 266 233 237 252 264 221 220 219 241 235 231 232
275 316 321 311 217 300 153 272 295 338 352 339 336 334 328 326 325 322 319 314 313 312 318 300 269 250 239 230 231 241 244 248 241 238 235 225 260 230 235 210 211 223 223 214 210 243 241 234 235
310 314 135 129 263 264 121 359 288 9 346 337 336 330 328 327 327 325 323 319 320 323 321 311 283 248 240 219 230 229 245 246 249 243 239 227 264 250 229 225 218 214 217 223 224 222 227 220 226
354 335 344 329 299 302 141 312 304 155 349 345 331 328 329 330 330 330 328 327 329 331 331 328 307 253 225 216 222 227 238 238 236 238 238 235 251 271 219 238 230 222 218 219 226 230 230 229 240
19 15 20 308 319 309 308 245 337 308 338 337 332 329 330 334 334 333 330 329 330 333 337 339 335 264 215 218 221 228 235 245 240 241 236 229 237 290 241 224 227 226 218 224 226 228 236 243 247
57 1 333 263 202 269 280 270 253 331 334 341 342 340 336 336 336 335 334 334 335 338 340 335 315 302 250 235 233 235 236 241 244 243 233 256 221 265 262 232 223 211 221 214 214 243 239 248 240
354 63 258 183 308 314 307 284 305 336 342 341 341 337 335 337 338 338 337 337 338 342 338 322 306 291 267 254 243 234 238 243 239 240 239 237 232 252 252 235 223 221 225 225 229 236 234 243 244
159 204 177 270 260 300 313 356 267 343 337 331 333 334 336 337 339 341 341 342 342 341 336 317 302 291 272 255 237 241 240 232 239 242 233 227 246 248 244 234 217 215 213 216 216 220 222 227 215
278 243 222 258 270 245 272 282 238 3 336 326 335 336 340 342 343 347 347 346 346 348 344 333 318 303 291 281 259 256 256 245 239 240 228 208 237 242 233 208 198 205 197 174 179 186 180 191 203